This is the latest recevied weather packets stored in our database for station/object NC4M. If no packets are shown the sender has not sent any weather packets the latest 10 day(s).
| Time | Temp. | Humidity | Pressure | Rain* | Wind** | Luminosity | Snow |
|---|---|---|---|---|---|---|---|
| 1787586505 | 25° C | 66% | 1019.2 hPa | 0 mm | - | 313 W/m² | - |
| 1787586200 | 24.44° C | 68% | 1019.2 hPa | 0 mm | - | 261 W/m² | - |
| 1787585897 | 24.44° C | 65% | 1019.2 hPa | 0 mm | - | 189 W/m² | - |
| 1787585596 | 24.44° C | 70% | 1019.1 hPa | 0 mm | - | 146 W/m² | - |
| 1787585292 | 23.89° C | 67% | 1019.2 hPa | 0 mm | - | 136 W/m² | - |
| 1787584992 | 23.89° C | 67% | 1019.1 hPa | 0 mm | - | 274 W/m² | - |
| 1787584687 | 23.89° C | 69% | 1019 hPa | 0 mm | - | 116 W/m² | - |
| 1787584385 | 23.33° C | 71% | 1019.3 hPa | 0 mm | - | 193 W/m² | - |
| 1787584084 | 23.33° C | 70% | 1019 hPa | 0 mm | - | 98 W/m² | - |
| 1787583779 | 23.33° C | 71% | 1019.1 hPa | 0 mm | - | 177 W/m² | - |
| 1787583479 | 22.78° C | 71% | 1019 hPa | 0 mm | - | 159 W/m² | - |
| 1787583178 | 22.78° C | 72% | 1019 hPa | 0 mm | - | 87 W/m² | - |
| 1787582873 | 22.22° C | 74% | 1019.1 hPa | 0 mm | - | 111 W/m² | - |
| 1787582568 | 22.22° C | 74% | 1018.9 hPa | 0 mm | - | 79 W/m² | - |
| 1787582264 | 22.22° C | 74% | 1018.9 hPa | 0 mm | - | 69 W/m² | - |
| 1787581963 | 21.67° C | 75% | 1018.7 hPa | 0 mm | - | 66 W/m² | - |
| 1787581658 | 21.11° C | 77% | 1018.7 hPa | 0 mm | - | 62 W/m² | - |
| 1787581354 | 21.11° C | 79% | 1018.8 hPa | 0 mm | - | 63 W/m² | - |
| 1787581054 | 21.11° C | 78% | 1018.7 hPa | 0 mm | - | 61 W/m² | - |
| 1787580750 | 20.56° C | 79% | 1018.7 hPa | 0 mm | - | 62 W/m² | - |
| 1787580445 | 20.56° C | 81% | 1018.8 hPa | 0 mm | - | 58 W/m² | - |
| 1787580140 | 20° C | 83% | 1018.7 hPa | 0 mm | - | 59 W/m² | - |
| 1787579840 | 19.44° C | 84% | 1018.6 hPa | 0 mm | - | 53 W/m² | - |
| 1787579535 | 19.44° C | 85% | 1018.8 hPa | 0 mm | - | 51 W/m² | - |
| 1787579230 | 19.44° C | 86% | 1018.6 hPa | 0 mm | - | 49 W/m² | - |
* Rain latest hour (hover to see other rain measurements)
** Current wind speed in m/s (hover to see current wind gust speed)